Weather History for KBIE - January, 1999

Change the Weather History Date:

Sunday, January 3, 1999

  Actual Average Record
Temperature  
Mean Temperature 2 °F -  
Max Temperature 6 °F 29 °F 58 °F (1955)
Min Temperature -2 °F 9 °F -8 °F (1968)
Degree Days  
Heating Degree Days 63    
Moisture  
Dew Point -4 °F    
Average Humidity 72    
Maximum Humidity 85    
Minimum Humidity 61    
Precipitation  
Precipitation 0.00 in - - ()
Sea Level Pressure  
Sea Level Pressure 30.28 in    
Wind  
Wind Speed 22 mph (NW)    
Max Wind Speed 29 mph    
Max Gust Speed 39 mph    
Visibility 8 miles    
Events      
Averages and records for this station are not official NWS values.
T = Trace of Precipitation, MM = Missing Value Source: NWS Daily Summary

Daily Weather History Graph

Daily Weather History Graph

Search for Another Location

Airport or City:

Trip Planner

Search our weather history database for the weather conditions in past years. The results will help you decide how hot, cold, wet, or windy it might be!

Date:

Astronomy

Jan. 03, 1999 Rise Set
Actual Time 7:50 AM CST 5:13 PM CST
Civil Twilight 7:19 AM CST 5:43 PM CST
Nautical Twilight 6:45 AM CST 6:17 PM CST
Astronomical Twilight 6:12 AM CST 6:50 PM CST
Moon 7:16 PM CST (1/3) 8:55 AM CST (1/3)
Length of Visible Light 10h 24m
Length of Day
9h 23m
Waning Gibbous, 97% of the Moon is Illuminated
Jan 3
Waning Gibbous
Jan 9
Last Quarter
Jan 17
New
Jan 24
First Quarter
Jan 31
Full

Hourly Weather History & Observations

Time (CST) Temp. Windchill Dew Point Humidity Pressure Visibility Wind Dir Wind Speed Gust Speed Precip Events Conditions
12:10 AM 3.2 °F -21.1 °F -2.2 °F 78% 30.17 in 5.0 mi NW 28.8 mph 38.0 mph N/A   Overcast
12:28 AM 3.2 °F -19.5 °F -2.2 °F 78% 30.18 in 10.0 mi NW 24.2 mph 39.1 mph N/A   Overcast
1:08 AM 3.2 °F -20.7 °F -2.2 °F 78% 30.18 in 4.0 mi NW 27.6 mph 34.5 mph N/A   Overcast
1:30 AM 3.2 °F -20.7 °F -2.2 °F 78% 30.19 in 2.5 mi NW 27.6 mph 35.7 mph N/A   Overcast
1:48 AM 3.2 °F -18.6 °F -0.4 °F 85% 30.19 in 1.8 mi NW 21.9 mph 32.2 mph N/A   Overcast
2:10 AM 3.2 °F -20.3 °F -0.4 °F 85% 30.20 in 1.5 mi NW 26.5 mph 35.7 mph N/A   Overcast
2:28 AM 3.2 °F -19.9 °F -2.2 °F 78% 30.20 in 1.8 mi NW 25.3 mph 35.7 mph N/A   Overcast
2:48 AM 3.2 °F -19.0 °F -2.2 °F 78% 30.21 in 10.0 mi NW 23.0 mph 32.2 mph N/A   Overcast
3:10 AM 3.2 °F -19.0 °F -2.2 °F 78% 30.22 in 4.0 mi NW 23.0 mph 34.5 mph N/A   Overcast
3:30 AM 3.2 °F -19.5 °F -2.2 °F 78% 30.22 in 2.5 mi NW 24.2 mph 32.2 mph N/A   Overcast
3:48 AM 3.2 °F -20.7 °F -2.2 °F 78% 30.22 in 5.0 mi NW 27.6 mph - N/A   Overcast
4:12 AM 1.4 °F -21.9 °F -4.0 °F 78% 30.22 in 3.5 mi NW 24.2 mph 36.8 mph N/A   Overcast
4:28 AM 1.4 °F -21.0 °F -2.2 °F 85% 30.23 in 5.0 mi NW 21.9 mph 28.8 mph N/A   Overcast
4:50 AM 3.2 °F -18.1 °F -2.2 °F 78% 30.24 in 7.0 mi WNW 20.7 mph 26.5 mph N/A   Overcast
5:10 AM 1.4 °F -21.9 °F -5.8 °F 72% 30.24 in 7.0 mi NW 24.2 mph 29.9 mph N/A   Overcast
5:32 AM 1.4 °F -21.9 °F -5.8 °F 72% 30.25 in 10.0 mi NW 24.2 mph 28.8 mph N/A   Overcast
5:48 AM -0.4 °F -23.3 °F -7.6 °F 72% 30.25 in 10.0 mi NW 21.9 mph - N/A   Overcast
6:10 AM -0.4 °F -22.3 °F -7.6 °F 72% 30.26 in 10.0 mi NW 19.6 mph 26.5 mph N/A   Overcast
6:28 AM -0.4 °F -21.7 °F -7.6 °F 72% 30.26 in 10.0 mi NW 18.4 mph 26.5 mph N/A   Overcast
6:50 AM -0.4 °F -22.8 °F -7.6 °F 72% 30.27 in 10.0 mi WNW 20.7 mph - N/A   Overcast
7:08 AM -0.4 °F -23.3 °F -9.4 °F 66% 30.27 in 10.0 mi NW 21.9 mph 25.3 mph N/A   Overcast
7:28 AM -2.2 °F -25.2 °F -9.4 °F 71% 30.28 in 10.0 mi WNW 20.7 mph - N/A   Scattered Clouds
8:48 AM -2.2 °F -24.7 °F -9.4 °F 71% 30.30 in 10.0 mi WNW 19.6 mph 23.0 mph N/A   Clear
9:50 AM -0.4 °F -20.5 °F -9.4 °F 66% 30.32 in 10.0 mi WNW 16.1 mph - N/A   Clear
10:10 AM -0.4 °F -21.7 °F -7.6 °F 72% 30.32 in 10.0 mi WNW 18.4 mph 25.3 mph N/A   Clear
10:51 AM 1.4 °F -21.4 °F -5.8 °F 72% 30.32 in 10.0 mi WNW 23.0 mph 26.5 mph N/A   Clear
11:08 AM 1.4 °F -21.0 °F -5.8 °F 72% 30.31 in 10.0 mi WNW 21.9 mph - N/A   Clear
11:30 AM 1.4 °F -21.0 °F -5.8 °F 72% 30.31 in 10.0 mi WNW 21.9 mph - N/A   Clear
11:57 AM 3.2 °F -18.6 °F -7.6 °F 61% 30.31 in 10.0 mi WNW 21.9 mph - N/A   Clear
12:10 PM 3.2 °F -18.6 °F -5.8 °F 66% 30.30 in 10.0 mi NW 21.9 mph 25.3 mph N/A   Clear
12:28 PM 3.2 °F -19.0 °F -5.8 °F 66% 30.30 in 10.0 mi WNW 23.0 mph 29.9 mph N/A   Clear
12:48 PM 3.2 °F -17.6 °F -4.0 °F 72% 30.30 in 10.0 mi NW 19.6 mph 26.5 mph N/A   Clear
1:12 PM 3.2 °F -18.1 °F -4.0 °F 72% 30.30 in 10.0 mi WNW 20.7 mph 26.5 mph N/A   Clear
1:48 PM 5.0 °F -17.1 °F -2.2 °F 72% 30.29 in 10.0 mi NW 24.2 mph - N/A   Clear
2:10 PM 5.0 °F -15.2 °F -4.0 °F 66% 30.29 in 10.0 mi WNW 19.6 mph - N/A   Clear
2:30 PM 6.8 °F -13.8 °F -4.0 °F 61% 30.29 in 10.0 mi WNW 21.9 mph - N/A   Scattered Clouds
2:48 PM 5.0 °F -15.7 °F -4.0 °F 66% 30.30 in 10.0 mi WNW 20.7 mph 24.2 mph N/A   Scattered Clouds
3:30 PM 6.8 °F -12.9 °F -2.2 °F 67% 30.30 in 10.0 mi NW 19.6 mph 26.5 mph N/A   Scattered Clouds
3:48 PM 6.8 °F -12.4 °F -2.2 °F 67% 30.31 in 10.0 mi NW 18.4 mph - N/A   Scattered Clouds
4:10 PM 6.8 °F -12.9 °F -2.2 °F 67% 30.31 in 10.0 mi NW 19.6 mph 27.6 mph N/A   Scattered Clouds
4:28 PM 6.8 °F -12.4 °F -2.2 °F 67% 30.31 in 10.0 mi NW 18.4 mph 21.9 mph N/A   Mostly Cloudy
4:50 PM 5.0 °F -14.7 °F -2.2 °F 72% 30.31 in 10.0 mi NW 18.4 mph - N/A   Scattered Clouds
5:08 PM 5.0 °F -12.3 °F -2.2 °F 72% 30.31 in 10.0 mi NW 13.8 mph - N/A   Scattered Clouds
5:30 PM 3.2 °F -13.9 °F -2.2 °F 78% 30.32 in 10.0 mi WNW 12.7 mph - N/A   Mostly Cloudy
5:51 PM 3.2 °F -15.3 °F -4.0 °F 72% 30.33 in 10.0 mi WNW 15.0 mph - N/A   Scattered Clouds
6:08 PM 3.2 °F -14.6 °F -5.8 °F 66% 30.33 in 10.0 mi WNW 13.8 mph - N/A   Clear
6:30 PM 3.2 °F -13.1 °F -5.8 °F 66% 30.33 in 10.0 mi WNW 11.5 mph - N/A   Clear
6:48 PM 3.2 °F -13.9 °F -4.0 °F 72% 30.33 in 10.0 mi WNW 12.7 mph - N/A   Clear
7:10 PM 3.2 °F -13.9 °F -5.8 °F 66% 30.33 in 10.0 mi WNW 12.7 mph - N/A   Clear
7:32 PM 1.4 °F -14.5 °F -5.8 °F 72% 30.33 in 10.0 mi WNW 10.4 mph - N/A   Scattered Clouds
7:48 PM 1.4 °F -13.5 °F -5.8 °F 72% 30.33 in 10.0 mi WNW 9.2 mph - N/A   Clear
8:31 PM 1.4 °F -13.5 °F -2.2 °F 85% 30.33 in 10.0 mi WNW 9.2 mph - N/A   Clear
9:08 PM -0.4 °F -15.7 °F -7.6 °F 72% 30.34 in 10.0 mi West 9.2 mph - N/A   Clear
9:30 PM -0.4 °F -13.4 °F -7.6 °F 72% 30.35 in 10.0 mi West 6.9 mph - N/A   Clear
9:48 PM -2.2 °F -18.0 °F -7.6 °F 78% 30.35 in 10.0 mi WNW 9.2 mph - N/A   Clear
10:10 PM -0.4 °F -14.7 °F -7.6 °F 72% 30.35 in 10.0 mi WNW 8.1 mph - N/A   Clear
10:30 PM -0.4 °F -13.4 °F -7.6 °F 72% 30.35 in 10.0 mi WNW 6.9 mph - N/A   Clear
11:08 PM -0.4 °F -13.4 °F -7.6 °F 72% 30.37 in 10.0 mi West 6.9 mph - N/A   Clear
11:30 PM -0.4 °F -14.7 °F -9.4 °F 66% 30.37 in 10.0 mi WNW 8.1 mph - N/A   Clear
11:53 PM -0.4 °F -16.7 °F -9.4 °F 66% 30.37 in 10.0 mi WNW 10.4 mph - N/A   Clear